User: anonymous   Login
Location: Unspecified
(0.0000°N, 0.0000°E)
Time: 21:43:10
(UTC+00:00)
Language:

TIANWANG 1B (TW-1B) - Orbit

View from above orbital plane
View from above orbital plane
View from above satellite
View from above satellite

Ground track
Ground track

The orbit data is extracted from the following two-line orbital elements,

1 40927U 15051C   18049.38523656  .00006733  00000-0  14013-3 0  9995
2 40927  97.2088  92.2410 0010809  14.6814  40.7146 15.45885628134853
Epoch (UTC): 18 February 2018 09:14:44
Eccentricity: 0.0010809
inclination: 97.2088°
perigee height: 421 km
apogee height: 436 km
right ascension of ascending node: 92.2410°
argument of perigee: 14.6814°
revolutions per day: 15.45885628
mean anomaly at epoch: 40.7146°
orbit number at epoch: 13485

The dashed part of the orbit path shows where the satellite is in the earth's shadow,  

DLR